Location: Fontevrault
(47.1823°N, 0.0493°E)
Time: 06:55:43
(UTC+00:00)

Cosmos 1943 Rocket - Visible Passes

Search period start: 26 October 2021 00:00
Search period end: 05 November 2021 00:00
Orbit: 810 x 845 km, 71.0° (Epoch: 26 October)

Date Brightness Start Highest point End Pass type
(mag) Time Alt. Az. Time Alt. Az. Time Alt. Az.
26 Oct 4.2 19:50:02 10° N 19:51:50 17° N 19:51:50 17° N visible
26 Oct 5.1 21:33:11 10° NNW 21:33:21 11° NNW 21:33:21 11° NNW visible
27 Oct 4.1 19:30:54 10° N 19:33:02 17° NNE 19:33:02 17° NNE visible
27 Oct 4.9 21:13:56 10° NNW 21:14:33 13° NNW 21:14:33 13° NNW visible
28 Oct 4.0 19:11:47 10° N 19:14:17 17° NNE 19:14:17 17° NNE visible
28 Oct 4.6 20:54:42 10° NNW 20:55:48 16° NNW 20:55:48 16° NNW visible
29 Oct 3.9 18:52:41 10° N 18:55:32 17° NNE 18:55:32 17° NNE visible
29 Oct 4.4 20:35:29 10° NNW 20:37:03 19° NNW 20:37:03 19° NNW visible
30 Oct 3.9 18:33:36 10° N 18:36:50 16° NE 18:36:50 16° NE visible
30 Oct 4.1 20:16:16 10° NNW 20:18:21 23° NNW 20:18:21 23° NNW visible
31 Oct 3.9 18:14:32 10° N 18:17:42 15° NE 18:18:10 15° NE visible
31 Oct 3.7 19:57:04 10° NNW 19:59:41 28° NNW 19:59:41 28° NNW visible
01 Nov 3.9 17:55:29 10° N 17:58:19 14° NE 17:59:32 13° NE visible
01 Nov 3.4 19:37:51 10° NNW 19:41:04 33° N 19:41:04 33° N visible
01 Nov 5.0 21:22:13 10° NW 21:22:35 12° NW 21:22:35 12° NW visible
02 Nov 4.0 17:36:30 10° N 17:38:55 13° NNE 17:40:58 11° NE visible
02 Nov 3.0 19:18:39 10° NNW 19:22:30 37° N 19:22:30 37° N visible
02 Nov 4.8 21:02:50 10° NW 21:04:01 15° NW 21:04:01 15° NW visible
03 Nov 4.1 17:17:35 10° N 17:19:32 12° NNE 17:21:29 10° NE visible
03 Nov 2.8 18:59:28 10° NNW 19:03:59 41° NNE 19:03:59 41° NNE visible
03 Nov 4.4 20:43:29 10° NW 20:45:32 20° WNW 20:45:32 20° WNW visible
04 Nov 2.7 18:40:17 10° NNW 18:45:34 39° NE 18:45:34 39° NE visible
04 Nov 4.0 20:24:09 10° NW 20:27:07 27° WNW 20:27:07 27° WNW visible
